Torna al catalogo

SL-8 R/B

AttivoPO
NORAD 28910·ROCKET BODY·🇷🇺 Russia

Lanciato Dec 21, 2005 da Plesetsk Cosmodrome

Loading…

Prossimi Passaggi (prossime 24 ore)

TLE

AggiornatoSource: Space-Track

Epoca: Sep 14, 2026, 23:17 UTC

1 28910U 05048C   26257.97032899 -.00000029  00000-0 -24368-3 0  9995
2 28910  82.4617 255.4307 0015965 259.8184 127.0317 12.54966759949668

Traccia SL-8 R/B in tempo reale con AllMySat

Download on the App Store